Weather History for KTYR - November, 2012

Change the Weather History Date:

Thursday, November 1, 2012

  Actual Average Record
Temperature  
Mean Temperature 67 °F 61 °F  
Max Temperature 83 °F 72 °F 86 °F (1963)
Min Temperature 50 °F 51 °F 28 °F (1901)
Degree Days  
Heating Degree Days 0 5  
Month to date heating degree days 0 5  
Since 1 July heating degree days 110 82  
Cooling Degree Days 2 2  
Month to date cooling degree days 2 2  
Year to date cooling degree days 2974 2395  
Growing Degree Days 16 (Base 50)    
Moisture  
Dew Point 53 °F    
Average Humidity 62    
Maximum Humidity 89    
Minimum Humidity 34    
Precipitation  
Precipitation 0.00 in 0.15 in 1.70 in (1974)
Month to date precipitation 0.00 0.15  
Year to date precipitation 31.55 37.60  
Snow  
Snow 0.00 in - - ()
Month to date snowfall 0.0  
Since 1 July snowfall 0.0  
Since 1 September snowfall 0.0  
Snow Depth 0.00 in    
Sea Level Pressure  
Sea Level Pressure 30.00 in    
Wind  
Wind Speed 5 mph (South)    
Max Wind Speed 9 mph    
Max Gust Speed 10 mph    
Visibility 9 miles    
Events      
T = Trace of Precipitation, MM = Missing Value Source: NWS Daily Summary

Daily Weather History Graph

Daily Weather History Graph

Search for Another Location

Airport or City:

Trip Planner

Search our weather history database for the weather conditions in past years. The results will help you decide how hot, cold, wet, or windy it might be!

Date:

Astronomy

Nov. 01, 2012 Rise Set
Actual Time 7:39 AM CDT 6:30 PM CDT
Civil Twilight 7:13 AM CDT 6:56 PM CDT
Nautical Twilight 6:44 AM CDT 7:25 PM CDT
Astronomical Twilight 6:16 AM CDT 7:53 PM CDT
Moon 8:35 PM CDT (11/1) 10:05 AM CDT (11/1)
Length of Visible Light 11h 42m
Length of Day
10h 51m
Waning Gibbous, 93% of the Moon is Illuminated
Nov 1
Waning Gibbous
Nov 6
Last Quarter
Nov 13
New
Nov 20
First Quarter
Nov 28
Full

Hourly Weather History & Observations

Time (CDT) Temp. Heat Index Dew Point Humidity Pressure Visibility Wind Dir Wind Speed Gust Speed Precip Events Conditions
12:53 AM 55.0 °F - 51.1 °F 86% 30.02 in 9.0 mi Calm Calm - N/A   Clear
1:53 AM 53.1 °F - 48.9 °F 86% 30.02 in 8.0 mi SSE 4.6 mph - N/A   Clear
3:53 AM 52.0 °F - 48.9 °F 89% 30.01 in 8.0 mi South 4.6 mph - N/A   Clear
4:53 AM 51.1 °F - 48.0 °F 89% 30.00 in 9.0 mi South 3.5 mph - N/A   Clear
5:53 AM 51.1 °F - 48.0 °F 89% 30.01 in 9.0 mi South 3.5 mph - N/A   Clear
6:53 AM 53.1 °F - 48.9 °F 86% 30.02 in 9.0 mi Calm Calm - N/A   Clear
7:53 AM 52.0 °F - 46.9 °F 83% 30.04 in 7.0 mi Calm Calm - N/A   Clear
9:53 AM 68.0 °F - 55.9 °F 65% 30.06 in 10.0 mi ESE 4.6 mph - N/A   Clear
10:53 AM 72.0 °F - 55.9 °F 57% 30.06 in 8.0 mi South 3.5 mph - N/A   Clear
11:53 AM 75.9 °F - 54.0 °F 46% 30.05 in 9.0 mi South 3.5 mph - N/A   Clear
12:53 PM 79.0 °F - 54.0 °F 42% 30.03 in 9.0 mi Variable 3.5 mph - N/A   Clear
1:53 PM 81.0 °F - 52.0 °F 36% 30.00 in 7.0 mi SW 3.5 mph - N/A   Clear
2:53 PM 82.0 °F 81.2 °F 53.1 °F 37% 29.97 in 6.0 mi SSW 4.6 mph - N/A   Haze
4:53 PM 82.9 °F - 52.0 °F 34% 29.96 in 10.0 mi SW 6.9 mph - N/A   Clear
5:53 PM 80.1 °F 80.1 °F 55.0 °F 42% 29.95 in 9.0 mi SSW 4.6 mph - N/A   Clear
6:53 PM 72.0 °F - 57.0 °F 59% 29.96 in 10.0 mi South 4.6 mph - N/A   Clear
7:53 PM 66.9 °F - 57.0 °F 70% 29.97 in 9.0 mi South 5.8 mph - N/A   Clear
8:53 PM 64.9 °F - 55.9 °F 73% 29.97 in 10.0 mi South 6.9 mph - N/A   Clear
9:53 PM 68.0 °F - 55.0 °F 63% 29.96 in 10.0 mi South 9.2 mph - N/A   Clear
10:53 PM 63.0 °F - 55.0 °F 75% 29.97 in 10.0 mi South 6.9 mph - N/A   Clear
11:53 PM 63.0 °F - 55.0 °F 75% 29.96 in 10.0 mi South 6.9 mph - N/A   Clear